Terminal Aerodrome Forecast
Issued by NWS

Home | Current Version | Previous Version | Text Only | Print | Product List | Glossary On
Versions: 1 2 3 4 5 6 7 8 9 10 11 12 13 14 15 16 17 18 19 20 21 22 23 24 25 26 27 28 29 30 31 32 33 34 35 36
927
FTUS41 KALY 232327
TAFPSF
TAF
KPSF 232327Z 2400/2424 22006KT P6SM SCT070
     FM240600 25005KT 6SM BR BKN025
     FM240900 VRB03KT 2SM BR VCSH BKN007 OVC015
     FM241600 19006KT 4SM BR BKN015 OVC025
     FM242000 19008G15KT P6SM SCT015 BKN045=

USA.gov is the U.S. government's official web portal to all federal, state and local government web resources and services.